Time,TemperatureF,DewpointF,PressureIn,WindDirection,WindDirectionDegrees,WindSpeedMPH,WindSpeedGustMPH,Humidity,HourlyPrecipIn,Conditions,Clouds,dailyrainin,SoftwareType,DateUTC
2013-02-04 00:00:00,25.4,20.1,29.69,SW,225,0.0,0.0,80,0.00,,,0.00,WUHU216HW,2013-02-04 05:00:00,
2013-02-04 00:01:00,25.4,20.1,29.69,SW,225,0.0,0.0,80,0.00,,,0.00,WUHU216HW,2013-02-04 05:01:00,
2013-02-04 00:02:00,25.4,20.1,29.69,SW,225,0.0,0.0,80,0.00,,,0.00,WUHU216HW,2013-02-04 05:02:00,
2013-02-04 00:07:00,25.4,20.1,29.69,SW,225,0.0,0.0,80,0.00,,,0.00,WUHU216HW,2013-02-04 05:07:00,
2013-02-04 00:29:00,25.0,19.8,29.69,SW,225,0.0,0.0,80,0.00,,,0.00,WUHU216HW,2013-02-04 05:29:00,
2013-02-04 00:34:00,25.0,19.8,29.69,SW,225,0.0,0.0,80,0.00,,,0.00,WUHU216HW,2013-02-04 05:34:00,
2013-02-04 00:59:00,24.5,19.3,29.69,SW,225,0.0,0.0,80,0.00,,,0.00,WUHU216HW,2013-02-04 05:59:00,
2013-02-04 01:04:00,24.5,19.3,29.69,SW,225,0.0,0.0,80,0.00,,,0.00,WUHU216HW,2013-02-04 06:04:00,
2013-02-04 01:29:00,24.1,18.9,29.69,SW,225,0.0,0.0,80,0.00,,,0.00,WUHU216HW,2013-02-04 06:29:00,
2013-02-04 01:34:00,24.1,18.9,29.69,SW,225,0.0,0.0,80,0.00,,,0.00,WUHU216HW,2013-02-04 06:34:00,
2013-02-04 01:59:00,23.2,17.7,29.69,SW,225,0.0,0.0,79,0.00,,,0.00,WUHU216HW,2013-02-04 06:59:00,
2013-02-04 02:04:00,23.2,17.7,29.69,SW,225,0.0,0.0,79,0.00,,,0.00,WUHU216HW,2013-02-04 07:04:00,
2013-02-04 02:29:00,22.3,17.1,29.69,ENE,68,0.0,0.0,80,0.00,,,0.00,WUHU216HW,2013-02-04 07:29:00,
2013-02-04 02:34:00,22.3,17.1,29.69,ENE,68,0.0,0.0,80,0.00,,,0.00,WUHU216HW,2013-02-04 07:34:00,
2013-02-04 02:59:00,22.0,16.7,29.68,SSW,203,0.0,0.0,80,0.00,,,0.00,WUHU216HW,2013-02-04 07:59:00,
2013-02-04 03:04:00,22.0,16.7,29.68,SSW,203,0.0,0.0,80,0.00,,,0.00,WUHU216HW,2013-02-04 08:04:00,
2013-02-04 03:29:00,21.1,15.6,29.68,NW,315,0.0,0.0,79,0.00,,,0.00,WUHU216HW,2013-02-04 08:29:00,
2013-02-04 03:34:00,21.1,15.6,29.68,NW,315,0.0,0.0,79,0.00,,,0.00,WUHU216HW,2013-02-04 08:34:00,
2013-02-04 03:59:00,20.9,15.0,29.68,West,270,0.0,0.0,78,0.00,,,0.00,WUHU216HW,2013-02-04 08:59:00,
2013-02-04 04:04:00,20.9,15.0,29.68,West,270,0.0,0.0,78,0.00,,,0.00,WUHU216HW,2013-02-04 09:04:00,
2013-02-04 04:29:00,21.1,15.0,29.69,SE,135,0.0,0.0,77,0.00,,,0.00,WUHU216HW,2013-02-04 09:29:00,
2013-02-04 04:34:00,21.1,15.0,29.69,SE,135,0.0,0.0,77,0.00,,,0.00,WUHU216HW,2013-02-04 09:34:00,
2013-02-04 04:59:00,21.1,14.6,29.69,WSW,248,0.0,0.0,76,0.00,,,0.00,WUHU216HW,2013-02-04 09:59:00,
2013-02-04 05:04:00,21.1,14.6,29.69,WSW,248,0.0,0.0,76,0.00,,,0.00,WUHU216HW,2013-02-04 10:04:00,
2013-02-04 05:29:00,20.7,14.2,29.71,SW,225,0.0,0.0,76,0.00,,,0.00,WUHU216HW,2013-02-04 10:29:00,
2013-02-04 05:34:00,20.7,14.2,29.71,SW,225,0.0,0.0,76,0.00,,,0.00,WUHU216HW,2013-02-04 10:34:00,
2013-02-04 05:59:00,20.5,13.8,29.72,WSW,248,0.4,0.4,75,0.00,,,0.00,WUHU216HW,2013-02-04 10:59:00,
2013-02-04 06:04:00,20.5,13.8,29.72,WSW,248,0.4,0.4,75,0.00,,,0.00,WUHU216HW,2013-02-04 11:04:00,
2013-02-04 06:29:00,20.3,13.6,29.73,SW,225,1.6,1.6,75,0.00,,,0.00,WUHU216HW,2013-02-04 11:29:00,
2013-02-04 06:34:00,20.3,13.6,29.73,SW,225,1.6,1.6,75,0.00,,,0.00,WUHU216HW,2013-02-04 11:34:00,
2013-02-04 06:59:00,20.9,13.9,29.73,WNW,293,0.4,0.4,74,0.00,,,0.00,WUHU216HW,2013-02-04 11:59:00,
2013-02-04 07:04:00,20.9,13.9,29.73,WNW,293,0.4,0.4,74,0.00,,,0.00,WUHU216HW,2013-02-04 12:04:00,
2013-02-04 07:29:00,21.1,14.1,29.75,West,270,0.4,0.4,74,0.00,,,0.00,WUHU216HW,2013-02-04 12:29:00,
2013-02-04 07:34:00,21.1,14.1,29.75,West,270,0.4,0.4,74,0.00,,,0.00,WUHU216HW,2013-02-04 12:34:00,
2013-02-04 07:59:00,21.6,14.9,29.74,WNW,293,1.3,1.3,75,0.00,,,0.00,WUHU216HW,2013-02-04 12:59:00,
2013-02-04 08:04:00,21.6,14.9,29.74,WNW,293,1.3,1.3,75,0.00,,,0.00,WUHU216HW,2013-02-04 13:04:00,
2013-02-04 08:29:00,23.6,15.8,29.75,SE,135,0.4,0.4,72,0.00,,,0.00,WUHU216HW,2013-02-04 13:29:00,
2013-02-04 08:34:00,23.6,15.8,29.75,SE,135,0.4,0.4,72,0.00,,,0.00,WUHU216HW,2013-02-04 13:34:00,
2013-02-04 08:59:00,27.7,16.0,29.75,SSW,203,1.8,1.8,61,0.00,,,0.00,WUHU216HW,2013-02-04 13:59:00,
2013-02-04 09:04:00,27.7,16.0,29.75,SSW,203,1.8,1.8,61,0.00,,,0.00,WUHU216HW,2013-02-04 14:04:00,
2013-02-04 09:29:00,29.0,14.0,29.75,WSW,248,8.5,8.5,53,0.00,,,0.00,WUHU216HW,2013-02-04 14:29:00,
2013-02-04 09:34:00,29.0,14.0,29.75,WSW,248,8.5,8.5,53,0.00,,,0.00,WUHU216HW,2013-02-04 14:34:00,
2013-02-04 09:59:00,29.5,14.9,29.75,WNW,293,1.3,1.3,54,0.00,,,0.00,WUHU216HW,2013-02-04 14:59:00,
2013-02-04 10:04:00,29.5,14.9,29.75,WNW,293,1.3,1.3,54,0.00,,,0.00,WUHU216HW,2013-02-04 15:04:00,
2013-02-04 10:29:00,30.1,13.7,29.75,WSW,248,3.1,3.1,50,0.01,,,0.00,WUHU216HW,2013-02-04 15:29:00,
2013-02-04 10:34:00,30.1,13.7,29.75,WSW,248,3.1,3.1,50,0.01,,,0.00,WUHU216HW,2013-02-04 15:34:00,
2013-02-04 10:59:00,30.6,12.2,29.75,West,270,2.5,2.5,46,0.01,,,0.01,WUHU216HW,2013-02-04 15:59:00,
2013-02-04 11:04:00,30.6,12.2,29.75,West,270,2.5,2.5,46,0.01,,,0.01,WUHU216HW,2013-02-04 16:04:00,
2013-02-04 11:29:00,31.3,11.8,29.74,East,90,4.9,4.9,44,0.00,,,0.01,WUHU216HW,2013-02-04 16:29:00,
2013-02-04 11:34:00,31.3,11.8,29.74,East,90,4.9,4.9,44,0.00,,,0.01,WUHU216HW,2013-02-04 16:34:00,
2013-02-04 11:59:00,31.5,12.5,29.74,West,270,6.9,6.9,45,0.00,,,0.01,WUHU216HW,2013-02-04 16:59:00,
2013-02-04 12:04:00,31.5,12.5,29.74,West,270,6.9,6.9,45,0.00,,,0.01,WUHU216HW,2013-02-04 17:04:00,
2013-02-04 12:29:00,31.3,11.4,29.74,SSW,203,4.3,4.3,43,0.00,,,0.01,WUHU216HW,2013-02-04 17:29:00,
2013-02-04 12:34:00,31.3,11.4,29.74,SSW,203,4.3,4.3,43,0.00,,,0.01,WUHU216HW,2013-02-04 17:34:00,
2013-02-04 12:59:00,32.0,12.4,29.73,NW,315,3.1,3.1,44,0.00,,,0.01,WUHU216HW,2013-02-04 17:59:00,
2013-02-04 13:04:00,32.0,12.4,29.73,NW,315,3.1,3.1,44,0.00,,,0.01,WUHU216HW,2013-02-04 18:04:00,
2013-02-04 13:29:00,29.2,11.9,29.74,WNW,293,1.6,1.6,48,0.00,,,0.01,WUHU216HW,2013-02-04 18:29:00,
2013-02-04 13:34:00,29.2,11.9,29.74,WNW,293,1.6,1.6,48,0.00,,,0.01,WUHU216HW,2013-02-04 18:34:00,
2013-02-04 13:59:00,29.9,10.5,29.74,SW,225,3.1,3.1,44,0.00,,,0.01,WUHU216HW,2013-02-04 18:59:00,
2013-02-04 14:04:00,29.9,10.5,29.74,SW,225,3.1,3.1,44,0.00,,,0.01,WUHU216HW,2013-02-04 19:04:00,
2013-02-04 14:29:00,30.6,9.6,29.74,SE,135,3.6,3.6,41,0.00,,,0.01,WUHU216HW,2013-02-04 19:29:00,
2013-02-04 14:34:00,30.6,9.6,29.74,SE,135,3.6,3.6,41,0.00,,,0.01,WUHU216HW,2013-02-04 19:34:00,
2013-02-04 14:59:00,29.5,8.6,29.75,West,270,2.7,2.7,41,0.00,,,0.01,WUHU216HW,2013-02-04 19:59:00,
2013-02-04 15:04:00,29.5,8.6,29.75,West,270,2.7,2.7,41,0.00,,,0.01,WUHU216HW,2013-02-04 20:04:00,
2013-02-04 15:29:00,29.9,7.8,29.75,NNE,23,2.5,2.5,39,0.00,,,0.01,WUHU216HW,2013-02-04 20:29:00,
2013-02-04 15:34:00,29.9,7.8,29.75,NNE,23,2.5,2.5,39,0.00,,,0.01,WUHU216HW,2013-02-04 20:34:00,
2013-02-04 15:59:00,29.7,8.8,29.76,WSW,248,2.2,2.2,41,0.00,,,0.01,WUHU216HW,2013-02-04 20:59:00,
2013-02-04 16:04:00,29.7,8.8,29.76,WSW,248,2.2,2.2,41,0.00,,,0.01,WUHU216HW,2013-02-04 21:04:00,
2013-02-04 16:29:00,27.7,8.0,29.77,SW,225,5.4,5.4,43,0.00,,,0.01,WUHU216HW,2013-02-04 21:29:00,
2013-02-04 16:34:00,27.7,8.0,29.77,SW,225,5.4,5.4,43,0.00,,,0.01,WUHU216HW,2013-02-04 21:34:00,
2013-02-04 16:59:00,27.0,8.4,29.78,SW,225,2.5,2.5,45,0.00,,,0.01,WUHU216HW,2013-02-04 21:59:00,
2013-02-04 17:04:00,27.0,8.4,29.78,SW,225,2.5,2.5,45,0.00,,,0.01,WUHU216HW,2013-02-04 22:04:00,
2013-02-04 17:29:00,26.3,8.6,29.80,WNW,293,1.3,1.3,47,0.00,,,0.01,WUHU216HW,2013-02-04 22:29:00,
2013-02-04 17:34:00,26.3,8.6,29.80,WNW,293,1.3,1.3,47,0.00,,,0.01,WUHU216HW,2013-02-04 22:34:00,
2013-02-04 17:59:00,25.7,7.2,29.81,West,270,1.3,1.3,45,0.00,,,0.01,WUHU216HW,2013-02-04 22:59:00,
2013-02-04 18:04:00,25.7,7.2,29.81,West,270,1.3,1.3,45,0.00,,,0.01,WUHU216HW,2013-02-04 23:04:00,
2013-02-04 18:29:00,25.6,6.6,29.82,SW,225,0.9,0.9,44,0.00,,,0.01,WUHU216HW,2013-02-04 23:29:00,
2013-02-04 18:34:00,25.6,6.6,29.82,SW,225,0.9,0.9,44,0.00,,,0.01,WUHU216HW,2013-02-04 23:34:00,
2013-02-04 18:59:00,25.0,6.6,29.84,SSE,158,2.5,2.5,45,0.00,,,0.01,WUHU216HW,2013-02-04 23:59:00,
2013-02-04 19:04:00,25.0,6.6,29.84,SSE,158,2.5,2.5,45,0.00,,,0.01,WUHU216HW,2013-02-05 00:04:00,
2013-02-04 19:09:00,25.0,6.6,29.84,SSE,158,2.5,2.5,45,0.00,,,0.01,WUHU216HW,2013-02-05 00:09:00,
2013-02-04 19:29:00,24.7,6.8,29.85,SW,225,2.5,2.5,46,0.00,,,0.01,WUHU216HW,2013-02-05 00:29:00,
2013-02-04 19:34:00,24.7,6.8,29.85,SW,225,2.5,2.5,46,0.00,,,0.01,WUHU216HW,2013-02-05 00:34:00,
2013-02-04 19:59:00,24.1,6.2,29.86,NW,315,1.3,1.3,46,0.00,,,0.01,WUHU216HW,2013-02-05 00:59:00,
2013-02-04 20:04:00,24.1,6.2,29.86,NW,315,1.3,1.3,46,0.00,,,0.01,WUHU216HW,2013-02-05 01:04:00,
2013-02-04 20:29:00,23.8,6.8,29.87,ESE,113,1.1,1.1,48,0.00,,,0.01,WUHU216HW,2013-02-05 01:29:00,
2013-02-04 20:34:00,23.8,6.8,29.87,ESE,113,1.1,1.1,48,0.00,,,0.01,WUHU216HW,2013-02-05 01:34:00,
2013-02-04 20:59:00,23.4,7.6,29.88,SSW,203,0.2,0.2,50,0.00,,,0.01,WUHU216HW,2013-02-05 01:59:00,
2013-02-04 21:04:00,23.4,7.6,29.88,SSW,203,0.2,0.2,50,0.00,,,0.01,WUHU216HW,2013-02-05 02:04:00,
2013-02-04 21:30:00,23.0,7.2,29.88,WNW,293,4.7,4.7,50,0.00,,,0.01,WUHU216HW,2013-02-05 02:30:00,
2013-02-04 21:35:00,23.0,7.2,29.88,WNW,293,4.7,4.7,50,0.00,,,0.01,WUHU216HW,2013-02-05 02:35:00,
2013-02-04 21:59:00,22.7,6.8,29.88,West,270,1.8,1.8,50,0.00,,,0.01,WUHU216HW,2013-02-05 02:59:00,
2013-02-04 22:04:00,22.7,6.8,29.88,West,270,1.8,1.8,50,0.00,,,0.01,WUHU216HW,2013-02-05 03:04:00,
2013-02-04 22:29:00,22.5,7.0,29.89,SSW,203,1.1,1.1,51,0.00,,,0.01,WUHU216HW,2013-02-05 03:29:00,
2013-02-04 22:34:00,22.5,7.0,29.89,SSW,203,1.1,1.1,51,0.00,,,0.01,WUHU216HW,2013-02-05 03:34:00,
2013-02-04 22:59:00,22.0,6.9,29.88,SSW,203,1.3,1.3,52,0.00,,,0.01,WUHU216HW,2013-02-05 03:59:00,
2013-02-04 23:04:00,22.0,6.9,29.88,SSW,203,1.3,1.3,52,0.00,,,0.01,WUHU216HW,2013-02-05 04:04:00,
2013-02-04 23:29:00,21.4,7.2,29.89,SW,225,0.4,0.4,54,0.00,,,0.01,WUHU216HW,2013-02-05 04:29:00,
2013-02-04 23:34:00,21.4,7.2,29.89,SW,225,0.4,0.4,54,0.00,,,0.01,WUHU216HW,2013-02-05 04:34:00,
2013-02-04 23:59:00,21.1,7.3,29.90,WSW,248,0.9,0.9,55,0.00,,,0.00,WUHU216HW,2013-02-05 04:59:00,